N348CF KSEZ-KTEX

Flight info

Callsign N348CF
Flight time 1h 4m
Altitude 41000
Route DCT YOOPR DCT CEZ DCT HAVWU DCT ETL DCT
Aircraft C750/M-SBDE3FGHRWXY/S

Departure

Time 2026-04-25 21:52
Airport Sedona Airport (KSEZ)

Arrival

Time 2026-04-25 22:56
Airport Telluride Regional Airport (KTEX)
Time Latitude Longitude Altitude Speed Heading
2026-04-25 21:16 34.84843 -111.79207 4777 ft 0 kts 310°
2026-04-25 21:45 34.84842 -111.79206 4777 ft 0 kts 310°
2026-04-25 21:45 34.84848 -111.79222 4778 ft 2 kts 269°
2026-04-25 21:46 34.84862 -111.79253 4779 ft 4 kts 335°
2026-04-25 21:46 34.84883 -111.79243 4782 ft 5 kts 38°
2026-04-25 21:46 34.84914 -111.79203 4786 ft 5 kts 47°
2026-04-25 21:46 34.84941 -111.79154 4788 ft 6 kts 103°
2026-04-25 21:47 34.84885 -111.79082 4787 ft 18 kts 135°
2026-04-25 21:47 34.84841 -111.78987 4781 ft 12 kts 58°
2026-04-25 21:47 34.84879 -111.78940 4785 ft 4 kts 45°
2026-04-25 21:47 34.84899 -111.78918 4786 ft 8 kts 42°
2026-04-25 21:48 34.84968 -111.78831 4790 ft 21 kts 46°
2026-04-25 21:48 34.85070 -111.78703 4801 ft 21 kts 45°
2026-04-25 21:48 34.85171 -111.78577 4821 ft 19 kts 46°
2026-04-25 21:48 34.85241 -111.78490 4824 ft 9 kts 45°
2026-04-25 21:49 34.85287 -111.78432 4829 ft 12 kts 46°
2026-04-25 21:49 34.85346 -111.78359 4830 ft 9 kts 45°
2026-04-25 21:49 34.85361 -111.78331 4831 ft 1 kts 75°
2026-04-25 21:49 34.85357 -111.78313 4832 ft 4 kts 125°
2026-04-25 21:50 34.85352 -111.78306 4832 ft 1 kts 131°
2026-04-25 21:50 34.85331 -111.78285 4832 ft 7 kts 155°
2026-04-25 21:50 34.85297 -111.78300 4835 ft 0 kts 225°
2026-04-25 21:51 34.85238 -111.78373 4828 ft 51 kts 226°
2026-04-25 21:51 34.84727 -111.79008 4837 ft 136 kts 221°
2026-04-25 21:52 34.84054 -111.79878 5465 ft 147 kts 223°
2026-04-25 21:52 34.83290 -111.80707 6247 ft 148 kts 207°
2026-04-25 21:52 34.82274 -111.80911 6934 ft 153 kts 183°
2026-04-25 21:52 34.81206 -111.80629 7684 ft 165 kts 162°
2026-04-25 21:53 34.80264 -111.79744 8438 ft 181 kts 136°
2026-04-25 21:53 34.79717 -111.78263 9138 ft 211 kts 106°
2026-04-25 21:53 34.79953 -111.76416 9774 ft 237 kts 64°
2026-04-25 21:53 34.80948 -111.74682 10135 ft 266 kts 50°
2026-04-25 21:54 34.82221 -111.72831 10220 ft 303 kts 49°
2026-04-25 21:54 34.83649 -111.70747 10178 ft 334 kts 50°
2026-04-25 21:54 34.85115 -111.68467 10363 ft 360 kts 51°
2026-04-25 21:54 34.86717 -111.66000 10531 ft 385 kts 50°
2026-04-25 21:55 34.88428 -111.63420 11061 ft 394 kts 50°
2026-04-25 21:55 34.90152 -111.60809 11814 ft 398 kts 50°
2026-04-25 21:55 34.91880 -111.58151 12500 ft 403 kts 51°
2026-04-25 21:55 34.93640 -111.55450 13103 ft 409 kts 50°
2026-04-25 21:56 34.95425 -111.52727 13763 ft 416 kts 50°
2026-04-25 21:56 34.96627 -111.50894 14208 ft 418 kts 50°
2026-04-25 21:56 34.99054 -111.47167 15133 ft 421 kts 50°
2026-04-25 21:56 35.00864 -111.44391 15770 ft 425 kts 50°
2026-04-25 21:57 35.02713 -111.41562 16417 ft 430 kts 50°
2026-04-25 21:57 35.04579 -111.38689 17085 ft 433 kts 50°
2026-04-25 21:57 35.06455 -111.35809 17913 ft 433 kts 50°
2026-04-25 21:57 35.08329 -111.32933 18571 ft 435 kts 50°
2026-04-25 21:58 35.10217 -111.30022 19139 ft 439 kts 50°
2026-04-25 21:58 35.12127 -111.27075 19730 ft 444 kts 50°
2026-04-25 21:58 35.14054 -111.24104 20405 ft 448 kts 49°
2026-04-25 21:58 35.15969 -111.21153 21033 ft 453 kts 49°
2026-04-25 21:59 35.17938 -111.18112 21674 ft 458 kts 49°
2026-04-25 21:59 35.19925 -111.15037 22285 ft 463 kts 49°
2026-04-25 21:59 35.21929 -111.11935 22927 ft 468 kts 50°
2026-04-25 22:00 35.26005 -111.05622 23996 ft 477 kts 50°
2026-04-25 22:00 35.28073 -111.02409 24458 ft 483 kts 50°
2026-04-25 22:00 35.30163 -110.99162 24986 ft 488 kts 50°
2026-04-25 22:00 35.32273 -110.95885 25478 ft 493 kts 50°
2026-04-25 22:01 35.34381 -110.92635 25967 ft 496 kts 50°
2026-04-25 22:01 35.36522 -110.89298 26422 ft 501 kts 50°
2026-04-25 22:01 35.38666 -110.85911 26874 ft 506 kts 50°
2026-04-25 22:01 35.40115 -110.83641 27028 ft 514 kts 50°
2026-04-25 22:02 35.43096 -110.79023 27701 ft 519 kts 50°
2026-04-25 22:02 35.45331 -110.75534 28227 ft 523 kts 50°
2026-04-25 22:02 35.47576 -110.71999 28709 ft 527 kts 50°
2026-04-25 22:02 35.49845 -110.68437 29196 ft 532 kts 50°
2026-04-25 22:03 35.52107 -110.64902 29644 ft 536 kts 50°
2026-04-25 22:03 35.54414 -110.61287 30071 ft 540 kts 50°
2026-04-25 22:03 35.56733 -110.57631 30483 ft 545 kts 50°
2026-04-25 22:03 35.59071 -110.53950 30958 ft 547 kts 50°
2026-04-25 22:04 35.61421 -110.50257 31351 ft 551 kts 50°
2026-04-25 22:04 35.63783 -110.46533 31703 ft 554 kts 50°
2026-04-25 22:04 35.66273 -110.42922 32098 ft 553 kts 41°
2026-04-25 22:04 35.69160 -110.39819 32511 ft 553 kts 36°
2026-04-25 22:05 35.72090 -110.36816 32934 ft 556 kts 35°
2026-04-25 22:05 35.75058 -110.33729 33289 ft 561 kts 36°
2026-04-25 22:05 35.78010 -110.30576 33688 ft 564 kts 37°
2026-04-25 22:05 35.80973 -110.27419 34203 ft 562 kts 36°
2026-04-25 22:06 35.83946 -110.24310 34700 ft 561 kts 35°
2026-04-25 22:06 35.86918 -110.21206 35176 ft 561 kts 35°
2026-04-25 22:06 35.89881 -110.18062 35656 ft 561 kts 36°
2026-04-25 22:06 35.92832 -110.14914 36185 ft 560 kts 35°
2026-04-25 22:07 35.95786 -110.11791 36691 ft 560 kts 34°
2026-04-25 22:07 35.97747 -110.09726 37043 ft 560 kts 34°
2026-04-25 22:07 36.01664 -110.05575 37840 ft 558 kts 34°
2026-04-25 22:07 36.04591 -110.02455 38428 ft 557 kts 34°
2026-04-25 22:08 36.07463 -109.99389 39052 ft 533 kts 34°
2026-04-25 22:08 36.10232 -109.96440 39834 ft 518 kts 33°
2026-04-25 22:08 36.12934 -109.93575 40546 ft 508 kts 33°
2026-04-25 22:08 36.15636 -109.90711 40673 ft 516 kts 33°
2026-04-25 22:09 36.18388 -109.87780 40680 ft 527 kts 34°
2026-04-25 22:09 36.21186 -109.84779 40686 ft 538 kts 34°
2026-04-25 22:09 36.26909 -109.78656 40691 ft 556 kts 34°
2026-04-25 22:10 36.32863 -109.72275 40687 ft 574 kts 34°
2026-04-25 22:10 36.38930 -109.65746 40689 ft 578 kts 34°
2026-04-25 22:11 36.45014 -109.59202 40685 ft 579 kts 34°
2026-04-25 22:11 36.51095 -109.52635 40691 ft 579 kts 35°
2026-04-25 22:12 36.57142 -109.46100 40717 ft 579 kts 35°
2026-04-25 22:12 36.62207 -109.40607 40679 ft 575 kts 35°
2026-04-25 22:13 36.69219 -109.33000 40679 ft 576 kts 35°
2026-04-25 22:13 36.75248 -109.26434 40680 ft 576 kts 35°
2026-04-25 22:14 36.81279 -109.19858 40677 ft 576 kts 35°
2026-04-25 22:14 36.87309 -109.13264 40644 ft 575 kts 35°
2026-04-25 22:15 36.93285 -109.06720 40667 ft 576 kts 35°
2026-04-25 22:16 37.02318 -108.96791 40666 ft 578 kts 36°
2026-04-25 22:16 37.05312 -108.93492 40266 ft 567 kts 35°
2026-04-25 22:16 37.08247 -108.90256 39512 ft 555 kts 35°
2026-04-25 22:16 37.11114 -108.87095 38803 ft 544 kts 35°
2026-04-25 22:17 37.13931 -108.83985 38058 ft 534 kts 35°
2026-04-25 22:17 37.16645 -108.80985 37366 ft 523 kts 35°
2026-04-25 22:17 37.19355 -108.77987 36689 ft 517 kts 35°
2026-04-25 22:17 37.22007 -108.74938 36000 ft 520 kts 40°
2026-04-25 22:18 37.24368 -108.71447 35334 ft 530 kts 50°
2026-04-25 22:18 37.26341 -108.67504 34673 ft 537 kts 59°
2026-04-25 22:18 37.27868 -108.63207 34199 ft 541 kts 69°
2026-04-25 22:18 37.28962 -108.58703 33664 ft 540 kts 75°
2026-04-25 22:19 37.29851 -108.54113 33069 ft 542 kts 77°
2026-04-25 22:19 37.30662 -108.49484 32542 ft 542 kts 78°
2026-04-25 22:19 37.31439 -108.44863 32197 ft 542 kts 78°
2026-04-25 22:19 37.32195 -108.40286 31904 ft 543 kts 78°
2026-04-25 22:20 37.32950 -108.35634 31672 ft 543 kts 79°
2026-04-25 22:20 37.33687 -108.31041 30544 ft 530 kts 79°
2026-04-25 22:20 37.34424 -108.26430 28152 ft 540 kts 79°
2026-04-25 22:20 37.35125 -108.22041 26129 ft 489 kts 79°
2026-04-25 22:21 37.35799 -108.17837 25813 ft 498 kts 79°
2026-04-25 22:21 37.36489 -108.13542 25477 ft 502 kts 79°
2026-04-25 22:21 37.37178 -108.09264 24885 ft 495 kts 79°
2026-04-25 22:21 37.37851 -108.05107 24229 ft 471 kts 79°
2026-04-25 22:22 37.38482 -108.01224 23442 ft 438 kts 78°
2026-04-25 22:22 37.39066 -107.97582 22620 ft 412 kts 79°
2026-04-25 22:22 37.39601 -107.94276 22687 ft 371 kts 79°
2026-04-25 22:22 37.40098 -107.91233 22739 ft 343 kts 79°
2026-04-25 22:23 37.40582 -107.88353 22451 ft 330 kts 78°
2026-04-25 22:23 37.41422 -107.85607 21391 ft 336 kts 62°
2026-04-25 22:23 37.42488 -107.83039 20518 ft 329 kts 59°
2026-04-25 22:23 37.43583 -107.80528 19671 ft 326 kts 59°
2026-04-25 22:24 37.44685 -107.78034 18865 ft 326 kts 59°
2026-04-25 22:24 37.45789 -107.75556 18071 ft 324 kts 59°
2026-04-25 22:24 37.46892 -107.73100 17169 ft 320 kts 59°
2026-04-25 22:24 37.47973 -107.70703 16472 ft 319 kts 59°
2026-04-25 22:25 37.49075 -107.68287 15848 ft 317 kts 59°
2026-04-25 22:25 37.50243 -107.66018 15762 ft 308 kts 46°
2026-04-25 22:25 37.51971 -107.64619 15728 ft 285 kts 15°
2026-04-25 22:25 37.53822 -107.63921 15796 ft 276 kts
2026-04-25 22:26 37.55707 -107.63331 15807 ft 285 kts
2026-04-25 22:26 37.57660 -107.62740 15804 ft 287 kts
2026-04-25 22:26 37.59594 -107.62165 15810 ft 288 kts
2026-04-25 22:26 37.61544 -107.61583 15802 ft 285 kts
2026-04-25 22:27 37.63446 -107.61013 15813 ft 286 kts
2026-04-25 22:27 37.65383 -107.60452 15836 ft 285 kts
2026-04-25 22:27 37.67306 -107.60623 15569 ft 273 kts 332°
2026-04-25 22:27 37.68677 -107.62080 15594 ft 258 kts 297°
2026-04-25 22:28 37.69317 -107.64293 15767 ft 281 kts 280°
2026-04-25 22:28 37.69779 -107.66765 15855 ft 295 kts 280°
2026-04-25 22:28 37.70217 -107.69321 15828 ft 294 kts 278°
2026-04-25 22:28 37.70644 -107.71871 15825 ft 300 kts 279°
2026-04-25 22:29 37.71066 -107.74456 15825 ft 301 kts 279°
2026-04-25 22:29 37.71477 -107.76993 15790 ft 298 kts 278°
2026-04-25 22:29 37.71895 -107.79554 15800 ft 298 kts 278°
2026-04-25 22:30 37.72730 -107.84704 15892 ft 299 kts 278°
2026-04-25 22:30 37.73147 -107.87228 15895 ft 293 kts 278°
2026-04-25 22:30 37.73573 -107.89786 15902 ft 300 kts 279°
2026-04-25 22:30 37.73856 -107.91487 15901 ft 295 kts 277°
2026-04-25 22:31 37.74458 -107.94806 15903 ft 291 kts 279°
2026-04-25 22:31 37.74927 -107.97315 15919 ft 296 kts 282°
2026-04-25 22:31 37.75368 -107.99843 15911 ft 293 kts 276°
2026-04-25 22:31 37.75813 -108.02313 15856 ft 292 kts 280°
2026-04-25 22:32 37.76254 -108.04851 15894 ft 298 kts 279°
2026-04-25 22:32 37.76692 -108.07420 15893 ft 295 kts 279°
2026-04-25 22:32 37.77145 -108.09917 15874 ft 292 kts 282°
2026-04-25 22:32 37.77586 -108.12473 15858 ft 294 kts 279°
2026-04-25 22:33 37.78019 -108.14985 15856 ft 288 kts 278°
2026-04-25 22:33 37.78478 -108.17442 15839 ft 290 kts 278°
2026-04-25 22:33 37.78955 -108.19942 15835 ft 293 kts 279°
2026-04-25 22:33 37.79433 -108.22454 15787 ft 295 kts 278°
2026-04-25 22:34 37.79920 -108.25077 15803 ft 315 kts 279°
2026-04-25 22:34 37.80410 -108.27733 15786 ft 316 kts 279°
2026-04-25 22:34 37.80910 -108.30448 15768 ft 317 kts 279°
2026-04-25 22:34 37.81414 -108.33168 15750 ft 319 kts 279°
2026-04-25 22:35 37.81920 -108.35892 15751 ft 318 kts 279°
2026-04-25 22:35 37.82411 -108.38526 15740 ft 294 kts 279°
2026-04-25 22:35 37.82871 -108.40918 15741 ft 265 kts 279°
2026-04-25 22:35 37.83302 -108.43089 15738 ft 245 kts 279°
2026-04-25 22:36 37.83699 -108.45109 15692 ft 229 kts 279°
2026-04-25 22:36 37.84080 -108.46988 15707 ft 213 kts 278°
2026-04-25 22:36 37.84451 -108.48738 15698 ft 201 kts 279°
2026-04-25 22:36 37.84823 -108.50496 15155 ft 212 kts 279°
2026-04-25 22:37 37.85204 -108.52287 14537 ft 210 kts 279°
2026-04-25 22:37 37.85590 -108.54057 13924 ft 209 kts 279°
2026-04-25 22:37 37.85977 -108.55797 13317 ft 207 kts 279°
2026-04-25 22:37 37.86378 -108.57538 12663 ft 205 kts 279°
2026-04-25 22:38 37.86782 -108.59257 12015 ft 203 kts 279°
2026-04-25 22:38 37.87158 -108.60955 11673 ft 193 kts 278°
2026-04-25 22:38 37.87524 -108.62548 11714 ft 188 kts 279°
2026-04-25 22:38 37.87890 -108.64153 11727 ft 191 kts 278°
2026-04-25 22:39 37.88273 -108.65778 11710 ft 192 kts 278°
2026-04-25 22:39 37.88661 -108.67389 11692 ft 192 kts 280°
2026-04-25 22:39 37.89042 -108.69019 11700 ft 194 kts 278°
2026-04-25 22:39 37.89423 -108.70651 11706 ft 194 kts 280°
2026-04-25 22:40 37.89788 -108.72279 11698 ft 196 kts 279°
2026-04-25 22:40 37.90145 -108.73939 11697 ft 195 kts 279°
2026-04-25 22:40 37.90503 -108.75601 11690 ft 195 kts 279°
2026-04-25 22:40 37.90862 -108.77264 11692 ft 197 kts 279°
2026-04-25 22:41 37.91227 -108.78955 11684 ft 201 kts 279°
2026-04-25 22:41 37.91599 -108.80647 11700 ft 199 kts 279°
2026-04-25 22:41 37.91981 -108.82321 11696 ft 197 kts 278°
2026-04-25 22:41 37.92370 -108.83986 11684 ft 197 kts 279°
2026-04-25 22:42 37.92756 -108.85656 11667 ft 198 kts 278°
2026-04-25 22:42 37.93153 -108.87296 11675 ft 193 kts 279°
2026-04-25 22:42 37.93547 -108.88923 11669 ft 193 kts 279°
2026-04-25 22:42 37.93962 -108.90521 11646 ft 198 kts 289°
2026-04-25 22:43 37.95040 -108.91713 11556 ft 220 kts 333°
2026-04-25 22:43 37.96577 -108.91700 11563 ft 230 kts 21°
2026-04-25 22:43 37.97704 -108.90351 11612 ft 227 kts 69°
2026-04-25 22:43 37.97916 -108.88441 11731 ft 216 kts 98°
2026-04-25 22:44 37.97861 -108.86523 11762 ft 222 kts 98°
2026-04-25 22:44 37.97780 -108.84561 11704 ft 224 kts 99°
2026-04-25 22:44 37.97705 -108.82602 11707 ft 221 kts 99°
2026-04-25 22:44 37.97745 -108.80607 11681 ft 242 kts 89°
2026-04-25 22:45 37.98063 -108.78354 11707 ft 270 kts 82°
2026-04-25 22:45 37.98399 -108.76029 11699 ft 269 kts 85°
2026-04-25 22:45 37.98662 -108.73662 11691 ft 273 kts 88°
2026-04-25 22:45 37.98913 -108.71271 11692 ft 274 kts 86°
2026-04-25 22:46 37.99183 -108.68929 11704 ft 272 kts 85°
2026-04-25 22:46 37.99459 -108.66553 11703 ft 276 kts 86°
2026-04-25 22:46 37.99734 -108.64152 11705 ft 274 kts 85°
2026-04-25 22:46 38.00003 -108.61771 11665 ft 271 kts 85°
2026-04-25 22:47 38.00269 -108.59421 11689 ft 277 kts 87°
2026-04-25 22:47 38.00346 -108.57020 11711 ft 269 kts 97°
2026-04-25 22:47 38.00210 -108.54677 11707 ft 266 kts 99°
2026-04-25 22:47 38.00119 -108.52339 11717 ft 265 kts 96°
2026-04-25 22:48 38.00120 -108.49986 11715 ft 267 kts 94°
2026-04-25 22:48 38.00122 -108.47661 11710 ft 264 kts 96°
2026-04-25 22:48 38.00096 -108.45385 11711 ft 265 kts 96°
2026-04-25 22:48 38.00065 -108.43131 11706 ft 244 kts 97°
2026-04-25 22:49 38.00045 -108.41052 11709 ft 231 kts 95°
2026-04-25 22:49 38.00019 -108.39014 11722 ft 234 kts 95°
2026-04-25 22:49 37.99993 -108.36939 11731 ft 237 kts 96°
2026-04-25 22:49 37.99971 -108.34827 11724 ft 239 kts 95°
2026-04-25 22:50 37.99946 -108.32689 11732 ft 243 kts 95°
2026-04-25 22:50 37.99924 -108.30554 11773 ft 242 kts 95°
2026-04-25 22:50 37.99899 -108.28454 11736 ft 241 kts 95°
2026-04-25 22:50 37.99875 -108.26353 11726 ft 237 kts 96°
2026-04-25 22:51 37.99849 -108.24248 11734 ft 241 kts 96°
2026-04-25 22:51 37.99825 -108.22147 11741 ft 237 kts 97°
2026-04-25 22:51 37.99799 -108.20077 11725 ft 233 kts 97°
2026-04-25 22:51 37.99865 -108.18012 11736 ft 239 kts 94°
2026-04-25 22:52 37.99649 -108.15913 11730 ft 235 kts 108°
2026-04-25 22:52 37.99289 -108.13941 11755 ft 234 kts 109°
2026-04-25 22:52 37.98942 -108.11891 11749 ft 234 kts 107°
2026-04-25 22:52 37.98717 -108.10502 11719 ft 237 kts 107°
2026-04-25 22:53 37.98682 -108.07754 11342 ft 227 kts 91°
2026-04-25 22:53 37.98676 -108.05852 11147 ft 210 kts 102°
2026-04-25 22:53 37.98368 -108.04044 11031 ft 208 kts 118°
2026-04-25 22:53 37.97896 -108.02368 10815 ft 203 kts 112°
2026-04-25 22:54 37.97499 -108.00781 10570 ft 176 kts 114°
2026-04-25 22:54 37.97205 -107.99352 10193 ft 163 kts 108°
2026-04-25 22:54 37.97029 -107.97980 9908 ft 149 kts 107°
2026-04-25 22:54 37.96727 -107.96678 9966 ft 160 kts 117°
2026-04-25 22:55 37.96325 -107.95321 9796 ft 165 kts 114°
2026-04-25 22:55 37.96026 -107.93904 9499 ft 170 kts 108°
2026-04-25 22:55 37.95724 -107.92484 9175 ft 160 kts 110°
2026-04-25 22:55 37.95439 -107.91158 9025 ft 141 kts 104°
2026-04-25 22:56 37.95279 -107.90394 9043 ft 36 kts 105°
2026-04-25 22:56 37.95244 -107.90221 9048 ft 17 kts 104°
2026-04-25 22:56 37.95270 -107.90134 9057 ft 7 kts 20°
2026-04-25 22:56 37.95312 -107.90118 9054 ft 5 kts 12°
2026-04-25 22:57 37.95342 -107.90146 9058 ft 11 kts 284°
2026-04-25 22:57 37.95360 -107.90237 9056 ft 10 kts 284°
2026-04-25 22:57 37.95396 -107.90259 9054 ft 4 kts 358°
2026-04-25 22:57 37.95410 -107.90276 9054 ft 3 kts 288°
2026-04-25 22:58 37.95411 -107.90283 9054 ft 0 kts 284°